Marule, Australia

5:55 AM AEST on July 26, 2017 (GMT +1000)
Marule

Weather History for 94387 - September, 2013

Change the Weather History Date:

Tuesday, September 10, 2013

  Actual Average Record
Temperature  
Mean Temperature 65 °F -  
Max Temperature 76 °F - - ()
Min Temperature 54 °F - - ()
Growing Degree Days 15 (Base 50)    
Moisture  
Dew Point 59 °F    
Average Humidity 89    
Maximum Humidity 100    
Minimum Humidity 48    
Precipitation  
Precipitation 0.04 in - - ()
Sea Level Pressure  
Sea Level Pressure 30.00 in    
Wind  
Wind Speed 3 mph ()    
Max Wind Speed 14 mph    
Max Gust Speed -    
Visibility 4.0 miles    
Events Rain    
T = Trace of Precipitation, MM = Missing Value Source: Averaged Metar Reports

Daily Weather History Graph

Daily Weather History Graph

Search for Another Location

Airport or City:

Trip Planner

Search our weather history database for the weather conditions in past years. The results will help you decide how hot, cold, wet, or windy it might be!

Date:

Astronomy

Sep. 10, 2013 Rise Set
Actual Time 5:53 AM AEST 5:42 PM AEST
Civil Twilight 5:30 AM AEST 6:05 PM AEST
Nautical Twilight 5:04 AM AEST 6:31 PM AEST
Astronomical Twilight 4:37 AM AEST 6:58 PM AEST
Moon 8:44 AM AEST (9/10) 10:12 PM AEST (9/10)
Length of Visible Light 12h 34m
Length of Day
11h 48m
Waxing Crescent, 22% of the Moon is Illuminated
Sep 10
Waxing Crescent
Sep 13
First Quarter
Sep 19
Full
Sep 27
Last Quarter
Oct 5
New

Hourly Weather History & Observations

Time (AEST) Temp. Dew Point Humidity Pressure Visibility Wind Dir Wind Speed Gust Speed Precip Events Conditions
12:00 AM 63 °F 60 °F 85% 30.09 in - Calm Calm - -   Overcast
12:59 AM 60.8 °F 57.2 °F 88% 30.06 in - Calm Calm - N/A   Unknown
1:00 AM 59.0 °F 57.2 °F 94% 30.06 in 1.9 mi Calm Calm - N/A   Unknown
1:19 AM 60.8 °F 59.0 °F 94% 30.04 in 6.2 mi South 4.6 mph - N/A   Scattered Clouds
3:00 AM 61 °F 59 °F 92% 30.03 in - SSE 2.3 mph - -   Overcast
3:17 AM 59.0 °F 57.2 °F 94% 30.01 in 3.1 mi SSW 3.5 mph - N/A   Scattered Clouds
3:30 AM 59.0 °F 57.2 °F 94% 30.01 in 1.4 mi SSW 4.6 mph - N/A   Scattered Clouds
3:59 AM 59.0 °F 59.0 °F 100% 30.01 in 3.1 mi Calm Calm - N/A   Scattered Clouds
4:00 AM 59.0 °F 59.0 °F 100% 30.01 in 3.1 mi Calm Calm - N/A   Scattered Clouds
4:24 AM 59.0 °F 57.2 °F 94% 30.01 in 6.2 mi Calm Calm - N/A   Scattered Clouds
4:29 AM 59.0 °F 57.2 °F 94% 30.01 in - Calm Calm - N/A   Scattered Clouds
4:30 AM 59.0 °F 57.2 °F 94% 30.01 in 2.2 mi Calm Calm - N/A   Scattered Clouds
5:00 AM 57.2 °F 57.2 °F 100% 30.01 in - South 3.5 mph - N/A   Unknown
5:18 AM 57.2 °F 55.4 °F 94% 30.01 in 0.6 mi SSW 2.3 mph - N/A   Unknown
5:30 AM 57.2 °F 55.4 °F 94% 30.01 in 0.2 mi Calm Calm - N/A   Scattered Clouds
6:00 AM 56 °F 55 °F 94% 30.03 in - Calm Calm - -  
6:00 AM 55.4 °F 55.4 °F 100% 30.01 in 6.2 mi Calm Calm - N/A   Scattered Clouds
6:07 AM 55.4 °F 55.4 °F 100% 30.01 in 6.2 mi Calm Calm - N/A   Scattered Clouds
9:00 AM 67 °F 62 °F 80% 30.07 in - NW 4.6 mph - -   Overcast
9:03 AM 66.2 °F 62.6 °F 88% 30.06 in 3.1 mi NW 6.9 mph - N/A Rain Light Rain
9:21 AM 66.2 °F 62.6 °F 88% 30.04 in 6.2 mi NE 11.5 mph - N/A Rain Light Rain Showers
12:00 PM 76 °F 60 °F 48% 29.98 in - North 11.5 mph - -  
3:00 PM 74 °F 61 °F 54% 29.90 in - North 13.8 mph - -   Overcast
6:00 PM 68 °F 63 °F 80% 29.92 in - NNE 9.2 mph - -  
6:14 PM 68.0 °F 62.6 °F 83% 29.92 in 6.2 mi NNE 10.4 mph - N/A   Mostly Cloudy
6:30 PM 68.0 °F 62.6 °F 83% 29.92 in 6.2 mi NNE 9.2 mph - N/A   Mostly Cloudy
6:35 PM 68.0 °F 62.6 °F 83% 29.92 in 6.2 mi North 9.2 mph - N/A   Scattered Clouds
9:00 PM 66 °F 62 °F 85% 29.96 in - North 9.2 mph - -  
11:30 PM 60.8 °F 60.8 °F 100% 29.95 in 3.1 mi NNW 5.8 mph - N/A   Unknown